When you browse on this site, cookies collect data to enhance your experience and personalize the content and advertising you see.
Visit our Privacy Policy to learn more. By continuing to use the site, you agree to this use of cookies and data.
  • In Hungary
  • List of Countries
  • For 7 days
  • Water Temperature
  • Weather Map
  • News
  • Weather Widgets
  • user-avatar
    Login

    Hourly Weather Lypnyky

    Today, 6 April, Monday

    Time Temperature Precipitation Wind Pressure Humidity
    00:00 +4°C° 0 mm 1 mps 759 mmHg 56%
    01:00 +4°C° 0 mm 1 mps 760 mmHg 58%
    02:00 +4°C° 0 mm 1 mps 760 mmHg 63%
    03:00 +3°C° 0 mm 1 mps 760 mmHg 66%
    04:00 +2°C° 0 mm 0 mps 760 mmHg 68%
    05:00 +1°C° 0 mm 0 mps 760 mmHg 71%
    06:00 +3°C° 0 mm 0 mps 760 mmHg 65%
    07:00 +5°C° 0 mm 1 mps 760 mmHg 60%
    08:00 +7°C° 0 mm 1 mps 761 mmHg 54%
    09:00 +9°C° 0 mm 1 mps 761 mmHg 49%
    10:00 +9°C° 0 mm 2 mps 761 mmHg 44%
    11:00 +12°C° 0 mm 2 mps 761 mmHg 39%
    12:00 +13°C° 0 mm 2 mps 761 mmHg 37%
    13:00 +13°C° 0 mm 2 mps 761 mmHg 34%
    14:00 +14°C° 0 mm 2 mps 760 mmHg 31%
    15:00 +14°C° 0 mm 2 mps 760 mmHg 32%
    16:00 +14°C° 0 mm 2 mps 760 mmHg 32%
    17:00 +14°C° 0 mm 2 mps 760 mmHg 33%
    18:00 +12°C° 0 mm 1 mps 759 mmHg 37%
    19:00 +10°C° 0 mm 1 mps 759 mmHg 42%
    20:00 +8°C° 0 mm 1 mps 759 mmHg 46%
    21:00 +8°C° 0 mm 1 mps 759 mmHg 47%
    22:00 +7°C° 0 mm 1 mps 760 mmHg 48%
    23:00 +7°C° 0 mm 1 mps 760 mmHg 49%

    Tomorrow, 7 April, Tuesday

    Time Temperature Precipitation Wind Pressure Humidity
    00:00 +6°C° 0 mm 1 mps 760 mmHg 51%
    01:00 +6°C° 0 mm 1 mps 760 mmHg 52%
    02:00 +6°C° 0 mm 1 mps 760 mmHg 53%
    03:00 +5°C° 0 mm 1 mps 760 mmHg 54%
    04:00 +5°C° 0 mm 1 mps 760 mmHg 55%
    05:00 +5°C° 0 mm 1 mps 760 mmHg 56%
    06:00 +6°C° 0 mm 1 mps 760 mmHg 53%
    07:00 +8°C° 0 mm 1 mps 760 mmHg 49%
    08:00 +9°C° 0 mm 1 mps 760 mmHg 46%
    09:00 +11°C° 0 mm 1 mps 760 mmHg 42%
    10:00 +13°C° 0 mm 2 mps 760 mmHg 37%
    11:00 +15°C° 0 mm 2 mps 760 mmHg 32%
    12:00 +14°C° 0 mm 3 mps 759 mmHg 31%
    13:00 +16°C° 0 mm 3 mps 759 mmHg 30%
    14:00 +17°C° 0 mm 3 mps 759 mmHg 28%
    15:00 +16°C° 0 mm 3 mps 759 mmHg 30%
    16:00 +16°C° 0 mm 3 mps 758 mmHg 31%
    17:00 +16°C° 0 mm 3 mps 758 mmHg 33%
    18:00 +13°C° 0 mm 3 mps 758 mmHg 37%
    19:00 +12°C° 0 mm 2 mps 757 mmHg 42%
    20:00 +9°C° 0 mm 2 mps 757 mmHg 46%
    21:00 +9°C° 0 mm 2 mps 757 mmHg 48%
    22:00 +8°C° 0 mm 2 mps 757 mmHg 50%
    23:00 +7°C° 0 mm 2 mps 757 mmHg 52%

    Day after tomorrow, 8 April, Wednesday

    Time Temperature Precipitation Wind Pressure Humidity
    00:00 +7°C° 0 mm 3 mps 757 mmHg 53%
    01:00 +7°C° 0 mm 3 mps 757 mmHg 54%
    02:00 +5°C° 0 mm 3 mps 756 mmHg 55%
    03:00 +5°C° 0 mm 3 mps 756 mmHg 57%
    04:00 +5°C° 0 mm 3 mps 756 mmHg 59%
    05:00 +4°C° 0 mm 3 mps 756 mmHg 60%
    06:00 +7°C° 0 mm 3 mps 755 mmHg 59%
    07:00 +8°C° 0 mm 3 mps 755 mmHg 58%
    08:00 +10°C° 0 mm 3 mps 755 mmHg 56%
    09:00 +12°C° 0 mm 3 mps 755 mmHg 52%
    10:00 +14°C° 0 mm 3 mps 755 mmHg 48%
    11:00 +17°C° 0 mm 3 mps 754 mmHg 44%
    12:00 +18°C° 0 mm 3 mps 754 mmHg 44%
    13:00 +18°C° 0 mm 3 mps 754 mmHg 43%
    14:00 +19°C° 0 mm 3 mps 753 mmHg 43%
    15:00 +19°C° 0 mm 3 mps 753 mmHg 46%
    16:00 +18°C° 0 mm 3 mps 753 mmHg 48%
    17:00 +18°C° 0 mm 3 mps 752 mmHg 50%
    18:00 +16°C° 0 mm 2 mps 752 mmHg 55%
    19:00 +14°C° 0 mm 2 mps 752 mmHg 60%
    20:00 +12°C° 0 mm 1 mps 752 mmHg 65%
    21:00 +11°C° 0 mm 1 mps 751 mmHg 65%
    22:00 +11°C° 0 mm 1 mps 751 mmHg 64%
    23:00 +9°C° 0 mm 0 mps 751 mmHg 63%

    9 April, Thursday

    Time Temperature Precipitation Wind Pressure Humidity
    00:00 +9°C° 0 mm 0 mps 751 mmHg 64%
    01:00 +8°C° 0 mm 0 mps 751 mmHg 65%
    02:00 +8°C° 0 mm 0 mps 751 mmHg 65%
    03:00 +9°C° 0 mm 1 mps 751 mmHg 69%
    04:00 +8°C° 0 mm 1 mps 750 mmHg 72%
    05:00 +8°C° 0 mm 1 mps 750 mmHg 76%
    06:00 +10°C° 0 mm 1 mps 750 mmHg 73%
    07:00 +10°C° 0 mm 2 mps 750 mmHg 71%
    08:00 +13°C° 0 mm 2 mps 749 mmHg 69%
    09:00 +14°C° 0 mm 2 mps 749 mmHg 64%
    10:00 +16°C° 0 mm 2 mps 749 mmHg 58%
    11:00 +17°C° 0 mm 3 mps 749 mmHg 53%
    12:00 +18°C° 0 mm 3 mps 748 mmHg 49%
    13:00 +18°C° 0 mm 3 mps 748 mmHg 46%
    14:00 +19°C° 0 mm 4 mps 747 mmHg 43%
    15:00 +19°C° 0 mm 4 mps 747 mmHg 43%
    16:00 +19°C° 0 mm 3 mps 746 mmHg 44%
    17:00 +19°C° 0 mm 3 mps 746 mmHg 44%
    18:00 +17°C° 0 mm 3 mps 745 mmHg 48%
    19:00 +14°C° 0 mm 3 mps 745 mmHg 52%
    20:00 +12°C° 0 mm 3 mps 745 mmHg 56%
    21:00 +12°C° 0 mm 3 mps 745 mmHg 58%
    22:00 +11°C° 0 mm 3 mps 745 mmHg 61%
    23:00 +10°C° 0 mm 3 mps 744 mmHg 63%

    10 April, Friday

    Time Temperature Precipitation Wind Pressure Humidity
    00:00 +10°C° 0 mm 3 mps 744 mmHg 64%
    01:00 +10°C° 0 mm 3 mps 744 mmHg 66%
    02:00 +9°C° 0 mm 3 mps 744 mmHg 67%
    03:00 +9°C° 0 mm 3 mps 744 mmHg 71%
    04:00 +9°C° 0 mm 3 mps 744 mmHg 75%
    05:00 +8°C° 0 mm 3 mps 744 mmHg 79%
    06:00 +9°C° 0.4 mm 3 mps 744 mmHg 79%
    07:00 +8°C° 0.4 mm 4 mps 744 mmHg 79%
    08:00 +8°C° 0.4 mm 4 mps 744 mmHg 80%
    09:00 +9°C° 0 mm 5 mps 745 mmHg 69%
    10:00 +10°C° 0 mm 5 mps 745 mmHg 58%
    11:00 +11°C° 0 mm 6 mps 745 mmHg 48%
    12:00 +11°C° 0 mm 6 mps 746 mmHg 46%
    13:00 +11°C° 0 mm 6 mps 746 mmHg 45%
    14:00 +11°C° 0 mm 6 mps 746 mmHg 43%
    15:00 +11°C° 0 mm 6 mps 746 mmHg 43%
    16:00 +10°C° 0 mm 5 mps 746 mmHg 43%
    17:00 +10°C° 0 mm 5 mps 747 mmHg 43%
    18:00 +8°C° 0 mm 4 mps 747 mmHg 47%
    19:00 +8°C° 0 mm 3 mps 747 mmHg 50%
    20:00 +6°C° 0 mm 2 mps 748 mmHg 53%
    21:00 +6°C° 0 mm 2 mps 748 mmHg 54%
    22:00 +5°C° 0 mm 2 mps 748 mmHg 55%
    23:00 +5°C° 0 mm 2 mps 749 mmHg 56%

    11 April, Saturday

    Time Temperature Precipitation Wind Pressure Humidity
    00:00 +5°C° 0 mm 2 mps 749 mmHg 56%
    01:00 +4°C° 0 mm 2 mps 749 mmHg 57%
    02:00 +4°C° 0 mm 2 mps 749 mmHg 57%
    03:00 +4°C° 0 mm 2 mps 749 mmHg 59%
    04:00 +3°C° 0 mm 2 mps 749 mmHg 60%
    05:00 +3°C° 0 mm 2 mps 749 mmHg 62%
    06:00 +4°C° 0 mm 2 mps 749 mmHg 58%
    07:00 +6°C° 0 mm 2 mps 749 mmHg 54%
    08:00 +8°C° 0 mm 2 mps 750 mmHg 50%
    09:00 +9°C° 0 mm 3 mps 749 mmHg 45%
    10:00 +11°C° 0 mm 3 mps 749 mmHg 40%
    11:00 +12°C° 0 mm 3 mps 749 mmHg 36%
    12:00 +13°C° 0 mm 3 mps 749 mmHg 35%
    13:00 +13°C° 0 mm 3 mps 749 mmHg 35%
    14:00 +14°C° 0 mm 3 mps 749 mmHg 35%
    15:00 +14°C° 0 mm 3 mps 749 mmHg 37%
    16:00 +14°C° 0 mm 2 mps 748 mmHg 40%
    17:00 +14°C° 0 mm 2 mps 748 mmHg 42%
    18:00 +13°C° 0 mm 1 mps 748 mmHg 47%
    19:00 +11°C° 0 mm 1 mps 748 mmHg 51%
    20:00 +10°C° 0 mm 1 mps 749 mmHg 55%
    21:00 +9°C° 0 mm 1 mps 749 mmHg 57%
    22:00 +9°C° 0 mm 1 mps 749 mmHg 60%
    23:00 +8°C° 0 mm 1 mps 749 mmHg 62%
    Show more